Location: Ferchesar
(52.6477°N, 12.4298°E)
Time: 08:39:52
(UTC+01:00)

Tiros 1 - Pass Details

Date: 04 December 2021
Orbit: 629 x 664 km, 48.4° (Epoch: 25 January)

Event Time Altitude Azimuth Distance (km) Brightness Sun altitude
Rises 21:29:52 0° 263° (W) 2,937 - -48.3°
Reaches altitude 10° 21:32:13 10° 258° (WSW) 2,033 - -48.6°
Maximum altitude 21:36:45 51° 183° (S) 813 - -49.1°
Drops below altitude 10° 21:41:20 10° 108° (ESE) 2,054 - -49.7°
Sets 21:43:44 0° 103° (ESE) 2,971 - -50.0°
